Wind_Speed
16 19 18 16 15 14 16 18 18 17 17 21 23 24 23 20 17 16 16 17 17 16 15 15 15 15 16 14 12 15 17 17 17 16 18 16 14 12 14 14 9 9 10
15 12 9 4 6 6 6 7 10 14 17 19 19 20 18 15 13 13 14 15 16 15 15 16 18 19 18 18 13 14 17 15 17 18 17 13 9 8 10 9 7 10 10
15 13 19 15 15 12 9 10 13 16 20 22 21 20 18 15 14 13 12 11 11 12 13 15 16 15 17 17 16 16 18 16 16 15 12 13 10 10 8 3 4 7 11
28 23 22 19 15 12 12 11 15 15 16 17 16 18 19 13 12 13 11 8 9 10 12 14 15 16 15 16 18 18 18 21 21 17 16 15 13 9 10 8 9 8 11
21 18 16 14 14 9 2 2 5 10 13 19 21 20 17 14 16 16 9 8 10 13 18 19 19 19 17 17 19 21 21 20 23 19 19 20 20 15 12 8 9 11 12
17 18 16 12 12 7 13 18 18 20 19 16 23 17 14 12 17 15 16 16 15 14 15 16 18 18 18 18 19 22 21 23 25 24 21 24 24 21 13 11 11 15 14
9 11 12 7 12 17 25 41 33 26 24 16 21 23 21 19 18 18 18 18 21 23 21 21 21 18 16 17 20 22 23 24 25 24 21 24 24 23 17 17 15 14 14
6 2 2 7 10 5 12 11 14 15 21 24 26 28 27 27 25 26 25 28 30 29 29 27 23 21 18 20 21 22 24 23 24 27 24 25 27 16 18 18 18 15 13
2 3 7 8 9 8 8 12 17 21 22 24 25 26 27 27 27 28 30 33 33 32 30 27 24 18 19 22 24 25 24 25 22 26 25 24 24 22 18 20 21 19 16
5 7 10 12 14 15 16 17 18 20 23 27 29 29 31 32 30 29 29 29 30 28 24 21 18 16 20 22 23 26 27 25 22 25 26 23 24 22 20 19 18 18 17
10 12 13 14 15 16 18 20 23 25 27 28 29 29 28 26 25 22 20 20 23 25 23 21 21 22 24 24 23 26 29 27 24 26 24 20 26 24 20 19 19 18 17
13 13 14 15 17 18 20 20 20 22 24 25 26 27 25 23 20 23 22 23 24 32 31 30 26 24 25 25 20 22 26 32 24 26 27 25 24 28 25 22 22 20 17
16 18 19 19 19 16 15 17 19 20 21 23 24 23 21 17 17 16 20 19 21 25 22 17 17 14 11 8 13 17 21 26 33 28 32 30 25 21 25 23 25 23 21
18 17 18 17 16 15 14 20 22 22 25 28 30 30 30 27 26 29 32 32 27 23 21 15 16 14 20 20 18 20 25 25 30 28 35 32 24 19 21 25 28 29 24
19 19 19 20 21 21 19 20 24 25 26 27 27 29 30 33 32 21 26 29 32 29 29 29 31 29 27 27 25 22 27 29 27 32 36 34 28 22 23 21 24 28 30
23 21 23 24 25 24 22 22 20 25 24 24 23 24 23 22 23 23 27 26 29 31 32 29 27 28 28 27 27 28 32 34 31 32 36 35 32 30 29 28 26 26 27
23 21 20 20 19 20 22 23 27 28 25 24 19 19 19 22 22 22 25 26 29 28 29 31 31 27 25 25 28 29 32 31 31 30 33 39 38 34 35 37 33 29 29
16 19 20 21 20 22 24 25 28 30 27 26 23 24 25 25 25 26 24 25 26 26 28 29 33 33 31 31 30 31 34 32 29 29 32 34 37 40 36 41 39 33 31
19 21 21 24 19 20 23 24 26 25 24 27 28 30 30 28 28 26 28 31 32 32 27 25 24 28 30 29 29 28 29 29 31 28 30 33 37 38 39 42 43 38 32
27 25 21 22 21 21 21 24 23 22 24 26 28 29 30 30 28 29 29 29 30 28 29 29 29 29 30 30 27 28 26 30 28 28 28 30 32 36 38 41 44 42 36
30 29 20 23 22 21 20 20 22 23 26 28 28 28 29 30 32 33 32 29 28 26 27 30 29 28 29 30 25 25 30 29 31 29 25 26 32 31 39 36 43 43 37
29 28 23 23 23 21 20 21 21 22 25 29 31 31 31 32 31 28 29 30 30 28 25 28 29 26 27 25 27 25 20 20 26 27 27 27 28 26 27 37 36 42 43
29 25 25 22 21 20 18 17 23 22 25 27 27 29 30 29 27 29 28 28 25 25 24 24 23 24 24 27 25 16 18 28 30 31 31 26 23 23 30 26 28 44 45
25 23 30 22 18 18 19 20 25 28 31 28 27 27 27 27 29 25 25 23 21 22 20 21 19 19 22 31 30 34 28 29 34 35 30 30 27 28 29 41 40 40 43
16 18 20 18 17 14 18 21 25 27 26 26 25 26 27 27 26 26 22 19 20 21 18 21 23 23 25 26 29 31 35 37 37 36 35 30 32 29 27 32 33 34 43
17 21 22 19 15 17 19 23 27 26 25 24 23 23 23 25 25 23 21 21 19 19 21 22 24 22 24 25 26 27 30 32 33 32 33 34 32 28 29 32 35 43 41
Wind_Direction
224 223 219 223 232 232 233 238 242 247 250 255 260 266 272 276 277 276 276 279 281 285 286 285 290 297 295 294 295 293 306 311 302 297 304 306 305 282 286 301 318 331 338
213 212 199 219 239 275 281 284 283 269 263 264 267 270 274 277 284 286 285 281 282 286 293 293 291 287 285 298 303 285 265 292 309 311 303 291 311 303 302 302 326 353 360
166 179 200 194 197 200 204 228 246 263 275 278 278 277 278 284 294 297 297 297 298 296 298 298 299 301 294 282 294 288 295 269 299 295 293 273 288 309 297 305 334 322 350
168 164 162 170 180 199 226 245 263 285 281 278 280 283 274 268 268 262 261 269 283 290 301 301 301 297 299 293 285 284 286 282 293 280 276 266 269 292 273 271 278 306 325
162 169 184 194 203 202 211 314 345 357 335 350 304 301 274 287 272 277 301 271 279 287 292 292 294 297 292 286 283 283 285 284 280 271 259 258 244 249 279 274 263 271 292
135 133 126 125 115 72 349 327 315 327 313 287 303 308 308 289 297 301 306 299 291 288 293 298 294 289 287 279 277 273 275 275 277 266 248 248 247 251 264 238 244 245 255
99 122 140 186 274 276 266 273 292 269 277 277 289 298 301 297 295 293 294 294 297 300 297 296 297 291 285 282 275 275 271 273 274 266 259 241 251 245 256 239 231 252 258
104 104 346 355 13 336 288 280 267 282 273 289 293 294 294 296 299 297 294 295 298 300 300 300 297 296 284 276 280 276 275 276 272 260 257 248 246 240 243 251 236 242 245
31 305 295 301 308 307 284 276 279 281 283 286 288 290 292 294 297 296 295 297 298 299 301 301 304 290 272 268 268 272 276 269 268 255 254 252 246 240 232 243 228 232 242
229 267 286 294 298 300 303 299 295 296 298 297 298 299 299 298 296 295 295 296 294 296 298 298 298 293 285 279 275 268 265 272 271 257 251 242 237 238 241 242 235 225 207
265 278 288 292 295 300 301 301 300 299 300 300 302 303 306 308 310 309 304 298 297 296 294 294 291 293 302 304 276 252 261 269 265 258 248 239 229 232 231 229 214 192 203
295 301 302 303 304 305 304 304 306 310 314 315 318 320 323 327 325 316 303 294 290 291 285 284 282 290 296 305 278 264 252 254 261 249 244 237 232 228 227 225 216 210 216
306 307 308 311 315 316 315 316 317 318 317 313 309 303 306 307 298 298 310 330 310 292 293 284 280 283 269 304 329 301 270 254 245 248 240 239 242 247 234 227 219 214 216
303 309 313 320 324 320 306 303 307 305 294 289 289 292 295 290 289 282 290 296 298 296 304 293 280 283 290 295 307 313 296 271 244 245 242 242 243 239 223 220 217 212 219
294 301 302 304 299 297 297 296 298 297 305 307 298 298 297 302 291 296 287 286 291 294 299 289 282 284 288 287 291 291 304 286 261 238 239 242 234 229 216 207 211 215 220
298 302 303 304 301 300 301 306 304 300 309 314 299 302 297 305 313 289 288 292 295 298 294 292 290 284 284 279 280 285 293 282 272 251 238 234 231 225 223 218 213 216 219
301 308 316 320 322 316 307 304 302 306 306 315 319 311 309 309 309 304 299 296 294 298 301 290 286 285 288 281 270 279 279 273 269 267 254 246 231 222 231 226 218 219 224
320 315 318 324 315 320 320 317 312 312 308 308 317 310 310 309 302 310 301 291 294 296 295 290 281 281 285 291 283 273 276 276 275 266 262 253 241 233 226 224 218 218 219
327 323 321 322 323 321 318 317 315 315 312 303 300 303 309 313 313 306 301 300 296 295 287 293 283 275 276 280 284 276 271 274 273 275 262 253 249 242 230 221 221 218 216
357 343 319 320 319 320 318 320 324 324 320 319 316 313 314 314 310 304 304 304 304 301 294 281 275 277 276 272 268 273 270 270 273 274 268 257 250 249 225 217 219 217 214
345 345 340 331 322 318 314 316 318 316 311 309 310 311 312 311 306 304 303 302 304 302 293 283 278 276 269 278 262 273 274 268 269 269 275 267 260 244 229 223 213 219 213
335 338 330 334 328 324 316 313 313 314 311 307 306 305 305 305 307 302 296 296 295 293 291 286 277 275 267 274 284 274 257 276 268 273 270 267 265 255 258 227 216 215 216
328 330 330 327 323 320 326 326 326 322 324 319 315 315 314 314 314 310 308 298 298 293 293 289 285 267 263 265 266 249 260 275 278 275 271 264 267 252 255 248 246 219 211
322 320 327 326 320 331 331 333 321 320 325 324 317 318 316 313 313 313 312 308 296 303 294 287 282 265 266 263 263 261 264 278 275 270 264 257 256 258 247 237 233 213 207
316 304 336 340 335 342 350 341 333 326 323 324 321 319 317 318 318 316 315 314 288 301 289 285 285 281 276 272 269 268 269 272 270 264 258 251 251 255 248 232 221 223 208
302 307 311 326 331 323 327 332 336 336 332 328 325 327 326 322 319 316 312 306 304 297 298 293 292 287 280 278 274 275 273 270 261 252 251 245 243 241 240 230 238 232 209
Height
1530 1532 1534 1537 1541 1544 1546 1549 1550 1551 1552 1551 1550 1549 1548 1547 1546 1544 1544 1543 1541 1540 1540 1540 1540 1541 1540 1541 1544 1541 1538 1536 1532 1529 1529 1530 1528 1525 1523 1523 1523 1521 1519
1526 1529 1534 1538 1541 1543 1546 1549 1549 1549 1548 1547 1545 1545 1544 1544 1542 1540 1539 1538 1537 1536 1536 1535 1534 1534 1534 1537 1540 1537 1534 1531 1526 1523 1526 1528 1527 1525 1522 1522 1521 1520 1518
1528 1528 1531 1535 1537 1541 1543 1545 1546 1547 1547 1544 1542 1542 1540 1538 1537 1536 1534 1533 1533 1533 1532 1531 1531 1530 1530 1531 1531 1531 1531 1527 1522 1520 1521 1524 1524 1524 1522 1521 1519 1519 1517
1521 1523 1526 1530 1534 1537 1538 1541 1543 1543 1542 1542 1541 1539 1536 1534 1532 1529 1528 1527 1527 1528 1528 1527 1527 1526 1526 1526 1525 1523 1523 1521 1519 1518 1517 1517 1521 1521 1520 1520 1518 1517 1516
1518 1521 1526 1529 1530 1534 1538 1538 1538 1541 1540 1539 1527 1536 1532 1530 1529 1526 1526 1523 1524 1523 1524 1524 1522 1521 1520 1520 1521 1519 1517 1517 1517 1515 1515 1514 1515 1517 1517 1516 1516 1515 1514
1519 1520 1526 1527 1532 1534 1532 1538 1538 1538 1538 1530 1544 1540 1533 1525 1526 1524 1523 1523 1522 1519 1518 1518 1517 1515 1513 1514 1515 1514 1514 1513 1512 1510 1510 1509 1509 1511 1513 1512 1514 1512 1513
1523 1525 1527 1528 1525 1520 1522 1528 1530 1534 1534 1533 1536 1534 1529 1528 1527 1523 1521 1518 1517 1516 1514 1512 1511 1510 1508 1507 1507 1507 1507 1505 1505 1505 1504 1504 1504 1506 1509 1508 1509 1510 1510
1522 1524 1524 1526 1524 1524 1521 1525 1530 1527 1527 1524 1526 1527 1524 1522 1520 1517 1514 1512 1510 1509 1508 1505 1503 1503 1502 1500 1499 1499 1499 1499 1498 1497 1499 1500 1500 1501 1503 1504 1504 1507 1508
1524 1525 1525 1524 1524 1524 1524 1525 1524 1523 1522 1522 1523 1522 1518 1513 1512 1510 1507 1504 1502 1500 1499 1497 1496 1495 1495 1493 1492 1492 1492 1492 1492 1491 1492 1494 1494 1496 1498 1500 1501 1503 1504
1524 1524 1524 1523 1522 1521 1521 1520 1520 1519 1517 1517 1514 1512 1509 1506 1506 1503 1501 1496 1493 1491 1491 1490 1490 1489 1489 1488 1486 1486 1485 1486 1486 1485 1486 1488 1489 1491 1493 1494 1497 1499 1501
1522 1522 1522 1521 1519 1518 1517 1516 1515 1513 1512 1509 1505 1504 1502 1501 1499 1495 1494 1490 1488 1485 1484 1485 1484 1484 1483 1481 1479 1478 1479 1480 1480 1480 1481 1482 1484 1486 1489 1490 1492 1495 1497
1519 1519 1518 1517 1516 1514 1513 1511 1509 1507 1503 1501 1499 1496 1495 1493 1492 1491 1487 1484 1481 1478 1477 1478 1478 1478 1476 1474 1472 1471 1473 1472 1473 1474 1475 1476 1478 1481 1484 1487 1489 1492 1494
1514 1513 1512 1512 1511 1509 1507 1505 1503 1502 1501 1498 1496 1493 1490 1489 1488 1485 1482 1478 1476 1473 1471 1471 1472 1472 1471 1470 1469 1468 1467 1468 1466 1468 1468 1469 1473 1476 1479 1483 1486 1489 1491
1511 1509 1508 1506 1505 1504 1502 1501 1499 1497 1494 1492 1488 1484 1482 1480 1479 1477 1475 1473 1472 1471 1471 1469 1467 1467 1466 1465 1464 1464 1463 1462 1458 1461 1463 1465 1470 1472 1473 1476 1479 1483 1485
1506 1505 1504 1502 1500 1498 1496 1494 1492 1490 1488 1484 1480 1477 1474 1471 1471 1471 1469 1467 1465 1464 1463 1462 1461 1461 1460 1459 1459 1459 1457 1455 1455 1456 1458 1460 1463 1467 1469 1472 1475 1478 1480
1500 1499 1498 1496 1493 1492 1489 1487 1486 1483 1480 1477 1474 1471 1469 1467 1464 1464 1462 1460 1458 1456 1454 1454 1453 1452 1452 1451 1451 1450 1450 1447 1447 1450 1452 1454 1457 1459 1463 1467 1471 1473 1475
1495 1493 1491 1489 1487 1485 1482 1479 1476 1474 1472 1470 1467 1465 1463 1461 1458 1456 1453 1451 1450 1448 1446 1444 1443 1443 1443 1442 1442 1441 1440 1440 1439 1441 1443 1446 1451 1452 1454 1458 1463 1466 1470
1491 1489 1487 1484 1481 1478 1475 1472 1469 1464 1461 1460 1459 1457 1456 1453 1451 1448 1445 1443 1443 1441 1439 1437 1435 1435 1434 1433 1432 1432 1431 1432 1432 1433 1435 1437 1441 1444 1446 1449 1453 1457 1463
1487 1484 1481 1478 1475 1473 1470 1467 1463 1459 1457 1454 1452 1451 1448 1446 1443 1440 1438 1435 1433 1432 1431 1429 1427 1426 1425 1425 1424 1423 1424 1423 1424 1425 1427 1428 1430 1434 1437 1440 1444 1450 1456
1484 1480 1477 1473 1471 1467 1465 1461 1458 1456 1453 1450 1447 1444 1442 1439 1435 1433 1430 1427 1424 1422 1421 1420 1419 1418 1417 1416 1417 1417 1417 1417 1416 1417 1417 1419 1421 1422 1428 1432 1436 1441 1447
1481 1476 1474 1470 1466 1463 1460 1457 1455 1452 1449 1445 1442 1439 1436 1433 1428 1424 1421 1419 1417 1414 1412 1410 1411 1410 1410 1411 1411 1411 1410 1410 1409 1409 1410 1412 1414 1417 1419 1427 1431 1434 1440
1477 1473 1470 1467 1463 1460 1456 1454 1451 1447 1444 1440 1435 1432 1428 1424 1420 1417 1413 1411 1409 1407 1405 1403 1402 1400 1400 1402 1403 1403 1401 1403 1404 1404 1404 1405 1406 1407 1409 1416 1420 1426 1432
1474 1470 1466 1463 1460 1456 1453 1450 1447 1443 1439 1435 1430 1424 1420 1416 1412 1409 1405 1402 1400 1398 1396 1394 1392 1392 1392 1395 1396 1395 1394 1396 1397 1398 1397 1399 1400 1400 1403 1403 1402 1414 1423
1471 1467 1463 1458 1455 1452 1449 1445 1443 1439 1433 1428 1423 1418 1414 1410 1406 1401 1398 1394 1392 1390 1388 1386 1385 1385 1385 1385 1384 1386 1385 1386 1388 1387 1388 1391 1395 1398 1400 1406 1407 1405 1414
1467 1464 1461 1456 1452 1449 1446 1443 1439 1433 1428 1422 1417 1413 1408 1404 1400 1395 1391 1388 1386 1382 1382 1380 1378 1377 1375 1374 1371 1371 1372 1373 1373 1374 1376 1380 1383 1388 1392 1394 1396 1394 1407
1462 1459 1457 1453 1450 1446 1443 1439 1434 1428 1422 1417 1413 1408 1404 1399 1394 1389 1385 1383 1380 1377 1375 1373 1371 1369 1368 1365 1363 1362 1362 1361 1360 1362 1365 1368 1371 1377 1379 1382 1388 1393 1399